{"data":{"norad_id":46275,"intl_designator":"2020-061D","name":"ATHENA","alt_names":[],"object_type":"PAYLOAD","status":"ACTIVE","operator":null,"country":"US","launch_date":"2020-09-03","launch_site_code":"FRGUI","launch_vehicle":null,"mission":null,"orbit_class":"UNKNOWN","rcs_meters":null,"size_class":null,"mass_kg":null,"dimensions":null,"purposes":[],"wikipedia_slug":null,"has_3d_model":false,"image_url":null,"decayed_at":null,"tle_current":{"epoch":"2026-05-25T02:57:36.819648Z","epoch_age_seconds":60558,"freshness":"FRESH","line1":"1 46275U 20061D   26145.12334282  .00014249  00000+0  27130-3 0  9991","line2":"2 46275  97.1923 209.5451 0002561 103.4719 256.6817 15.48308919318580","mean_motion":15.48308919,"eccentricity":0.0002561,"inclination_deg":97.1923,"raan_deg":209.5451,"arg_perigee_deg":103.4719,"mean_anomaly_deg":256.6817,"bstar":0.0002713,"rev_number":31858,"period_min":93.004695789652,"perigee_km":419.93135668112,"apogee_km":423.41421925452,"semimajor_km":6799.8097879678,"source":"CELESTRAK","updated_at":"2026-05-25T13:37:56.289441Z"}}}